When you browse on this site, cookies collect data to enhance your experience and personalize the content and advertising you see.
Visit our Privacy Policy to learn more. By continuing to use the site, you agree to this use of cookies and data.
  • In Hungary
  • List of Countries
  • For 7 days
  • Water Temperature
  • Weather Map
  • News
  • Weather Widgets
  • user-avatar
    Login

    Hourly Weather Wakefield

    Today, 29 May, Friday

    Time Temperature Precipitation Wind Pressure Humidity
    00:00 +14°C° 0 mm 2 mps 766 mmHg 80%
    01:00 +13°C° 0 mm 2 mps 766 mmHg 81%
    02:00 +13°C° 0 mm 1 mps 766 mmHg 82%
    03:00 +13°C° 0 mm 1 mps 766 mmHg 82%
    04:00 +13°C° 0 mm 1 mps 766 mmHg 78%
    05:00 +14°C° 0 mm 1 mps 766 mmHg 74%
    06:00 +14°C° 0 mm 1 mps 766 mmHg 71%
    07:00 +16°C° 0 mm 2 mps 766 mmHg 64%
    08:00 +17°C° 0 mm 2 mps 766 mmHg 57%
    09:00 +18°C° 0 mm 3 mps 765 mmHg 50%
    10:00 +19°C° 0 mm 3 mps 765 mmHg 48%
    11:00 +20°C° 0 mm 3 mps 765 mmHg 46%
    12:00 +22°C° 0 mm 4 mps 765 mmHg 47%
    13:00 +22°C° 0 mm 4 mps 764 mmHg 48%
    14:00 +22°C° 0 mm 4 mps 764 mmHg 50%
    15:00 +22°C° 0 mm 4 mps 763 mmHg 51%
    16:00 +21°C° 0 mm 4 mps 763 mmHg 55%
    17:00 +20°C° 0 mm 4 mps 763 mmHg 58%
    18:00 +19°C° 0 mm 4 mps 763 mmHg 62%
    19:00 +17°C° 0 mm 3 mps 763 mmHg 65%
    20:00 +14°C° 0 mm 3 mps 763 mmHg 69%
    21:00 +12°C° 0 mm 3 mps 763 mmHg 73%
    22:00 +12°C° 0 mm 2 mps 763 mmHg 74%
    23:00 +10°C° 0 mm 2 mps 763 mmHg 74%

    Tomorrow, 30 May, Saturday

    Time Temperature Precipitation Wind Pressure Humidity
    00:00 +10°C° 0 mm 2 mps 763 mmHg 75%
    01:00 +10°C° 0 mm 1 mps 763 mmHg 76%
    02:00 +10°C° 0 mm 1 mps 763 mmHg 77%
    03:00 +9°C° 0 mm 1 mps 763 mmHg 79%
    04:00 +10°C° 0 mm 1 mps 763 mmHg 77%
    05:00 +11°C° 0 mm 1 mps 763 mmHg 75%
    06:00 +11°C° 0 mm 1 mps 763 mmHg 73%
    07:00 +13°C° 0 mm 2 mps 763 mmHg 68%
    08:00 +15°C° 0 mm 2 mps 763 mmHg 62%
    09:00 +16°C° 0 mm 3 mps 763 mmHg 56%
    10:00 +18°C° 0 mm 3 mps 763 mmHg 56%
    11:00 +19°C° 0 mm 4 mps 763 mmHg 56%
    12:00 +20°C° 0 mm 4 mps 762 mmHg 57%
    13:00 +20°C° 0 mm 4 mps 762 mmHg 57%
    14:00 +20°C° 0 mm 4 mps 762 mmHg 58%
    15:00 +21°C° 0 mm 4 mps 762 mmHg 59%
    16:00 +20°C° 0 mm 4 mps 762 mmHg 60%
    17:00 +19°C° 0 mm 5 mps 762 mmHg 61%
    18:00 +17°C° 0 mm 5 mps 761 mmHg 63%
    19:00 +17°C° 0 mm 4 mps 762 mmHg 69%
    20:00 +14°C° 0 mm 4 mps 762 mmHg 75%
    21:00 +12°C° 0 mm 3 mps 762 mmHg 81%
    22:00 +11°C° 0 mm 3 mps 763 mmHg 83%
    23:00 +10°C° 0 mm 2 mps 763 mmHg 85%

    Day after tomorrow, 31 May, Sunday

    Time Temperature Precipitation Wind Pressure Humidity
    00:00 +10°C° 0 mm 2 mps 763 mmHg 86%
    01:00 +9°C° 0 mm 2 mps 763 mmHg 87%
    02:00 +10°C° 0 mm 1 mps 763 mmHg 87%
    03:00 +9°C° 0 mm 1 mps 763 mmHg 88%
    04:00 +10°C° 0 mm 1 mps 763 mmHg 86%
    05:00 +10°C° 0 mm 2 mps 763 mmHg 84%
    06:00 +10°C° 0 mm 2 mps 763 mmHg 83%
    07:00 +13°C° 0 mm 2 mps 763 mmHg 74%
    08:00 +14°C° 0 mm 3 mps 763 mmHg 66%
    09:00 +17°C° 0 mm 3 mps 763 mmHg 58%
    10:00 +18°C° 0 mm 3 mps 763 mmHg 56%
    11:00 +19°C° 0 mm 3 mps 763 mmHg 54%
    12:00 +21°C° 0 mm 3 mps 763 mmHg 52%
    13:00 +21°C° 0 mm 4 mps 763 mmHg 53%
    14:00 +21°C° 0 mm 4 mps 763 mmHg 53%
    15:00 +21°C° 0 mm 4 mps 763 mmHg 53%
    16:00 +20°C° 0 mm 4 mps 763 mmHg 56%
    17:00 +19°C° 0 mm 4 mps 763 mmHg 58%
    18:00 +19°C° 0 mm 4 mps 763 mmHg 61%
    19:00 +17°C° 0 mm 4 mps 763 mmHg 66%
    20:00 +14°C° 0 mm 3 mps 764 mmHg 72%
    21:00 +12°C° 0 mm 3 mps 764 mmHg 77%
    22:00 +13°C° 0 mm 2 mps 764 mmHg 79%
    23:00 +12°C° 0 mm 2 mps 764 mmHg 81%

    1 June, Monday

    Time Temperature Precipitation Wind Pressure Humidity
    00:00 +11°C° 0 mm 1 mps 764 mmHg 84%
    01:00 +11°C° 0 mm 1 mps 764 mmHg 85%
    02:00 +10°C° 0 mm 1 mps 764 mmHg 86%
    03:00 +10°C° 0 mm 1 mps 764 mmHg 87%
    04:00 +10°C° 0 mm 2 mps 764 mmHg 85%
    05:00 +12°C° 0 mm 2 mps 764 mmHg 83%
    06:00 +12°C° 0 mm 2 mps 764 mmHg 81%
    07:00 +14°C° 0 mm 2 mps 764 mmHg 76%
    08:00 +16°C° 0 mm 3 mps 764 mmHg 71%
    09:00 +17°C° 0 mm 3 mps 764 mmHg 66%
    10:00 +18°C° 0 mm 4 mps 764 mmHg 62%
    11:00 +19°C° 0 mm 4 mps 764 mmHg 57%
    12:00 +20°C° 0 mm 4 mps 764 mmHg 53%
    13:00 +20°C° 0 mm 4 mps 764 mmHg 52%
    14:00 +21°C° 0 mm 4 mps 763 mmHg 51%
    15:00 +21°C° 0 mm 4 mps 763 mmHg 50%
    16:00 +20°C° 0 mm 4 mps 763 mmHg 52%
    17:00 +19°C° 0 mm 4 mps 763 mmHg 54%
    18:00 +18°C° 0 mm 4 mps 763 mmHg 56%
    19:00 +17°C° 0 mm 3 mps 763 mmHg 63%
    20:00 +14°C° 0 mm 3 mps 763 mmHg 69%
    21:00 +13°C° 0 mm 2 mps 763 mmHg 75%
    22:00 +12°C° 0 mm 2 mps 763 mmHg 78%
    23:00 +12°C° 0 mm 1 mps 763 mmHg 80%

    2 June, Tuesday

    Time Temperature Precipitation Wind Pressure Humidity
    00:00 +11°C° 0 mm 1 mps 762 mmHg 82%
    01:00 +11°C° 0 mm 1 mps 762 mmHg 83%
    02:00 +11°C° 0 mm 1 mps 762 mmHg 84%
    03:00 +10°C° 0 mm 1 mps 761 mmHg 85%
    04:00 +11°C° 0 mm 1 mps 761 mmHg 83%
    05:00 +12°C° 0 mm 1 mps 761 mmHg 81%
    06:00 +13°C° 0 mm 1 mps 761 mmHg 78%
    07:00 +15°C° 0 mm 1 mps 760 mmHg 70%
    08:00 +16°C° 0 mm 1 mps 760 mmHg 61%
    09:00 +19°C° 0 mm 1 mps 760 mmHg 53%
    10:00 +20°C° 0 mm 1 mps 759 mmHg 48%
    11:00 +22°C° 0 mm 1 mps 759 mmHg 44%
    12:00 +23°C° 0 mm 1 mps 758 mmHg 39%
    13:00 +23°C° 0 mm 1 mps 757 mmHg 39%
    14:00 +23°C° 0 mm 1 mps 757 mmHg 39%
    15:00 +23°C° 0 mm 1 mps 756 mmHg 39%
    16:00 +21°C° 0 mm 2 mps 756 mmHg 46%
    17:00 +21°C° 0 mm 2 mps 755 mmHg 52%
    18:00 +20°C° 0 mm 2 mps 754 mmHg 59%
    19:00 +18°C° 0.1 mm 2 mps 754 mmHg 64%
    20:00 +17°C° 0.1 mm 2 mps 754 mmHg 69%
    21:00 +16°C° 0.1 mm 2 mps 754 mmHg 75%
    22:00 +15°C° 0.1 mm 2 mps 754 mmHg 78%
    23:00 +15°C° 0.1 mm 2 mps 754 mmHg 80%

    3 June, Wednesday

    Time Temperature Precipitation Wind Pressure Humidity
    00:00 +14°C° 0.1 mm 2 mps 753 mmHg 83%
    01:00 +14°C° 0.4 mm 2 mps 753 mmHg 85%
    02:00 +13°C° 0.4 mm 3 mps 753 mmHg 88%
    03:00 +12°C° 0.4 mm 3 mps 752 mmHg 90%
    04:00 +12°C° 0.6 mm 4 mps 752 mmHg 90%
    05:00 +11°C° 0.6 mm 4 mps 752 mmHg 89%
    06:00 +11°C° 0.6 mm 4 mps 752 mmHg 89%
    07:00 +10°C° 0.1 mm 5 mps 752 mmHg 88%
    08:00 +10°C° 0.1 mm 5 mps 752 mmHg 88%
    09:00 +12°C° 0.1 mm 5 mps 753 mmHg 87%
    10:00 +11°C° 0.3 mm 6 mps 753 mmHg 86%
    11:00 +11°C° 0.3 mm 6 mps 753 mmHg 85%
    12:00 +11°C° 0.3 mm 7 mps 753 mmHg 83%
    13:00 +11°C° 0.1 mm 7 mps 753 mmHg 83%
    14:00 +11°C° 0.1 mm 8 mps 753 mmHg 82%
    15:00 +11°C° 0.1 mm 8 mps 753 mmHg 82%
    16:00 +10°C° 0 mm 8 mps 753 mmHg 80%
    17:00 +10°C° 0 mm 8 mps 753 mmHg 78%
    18:00 +10°C° 0 mm 8 mps 753 mmHg 76%
    19:00 +9°C° 0 mm 7 mps 753 mmHg 75%
    20:00 +9°C° 0 mm 7 mps 753 mmHg 74%
    21:00 +8°C° 0 mm 7 mps 753 mmHg 73%
    22:00 +8°C° 0 mm 6 mps 753 mmHg 73%
    23:00 +8°C° 0 mm 6 mps 753 mmHg 73%
    Show more